Location: Peebles
(55.6412°N, 3.1714°W)
Time: 08:37:09
(UTC+01:00)

NOSS 3-3 (A) - Pass Details

Date: 07 February 2022
Orbit: 789 x 1423 km, 63.4° (Epoch: 23 April)

Event Time Altitude Azimuth Distance (km) Brightness Sun altitude
Exits shadow 05:15:17 19° 201° (SSW) 1,977 5.4 -22.7°
Maximum altitude 05:19:25 56° 129° (SE) 1,123 4.5 -22.1°
Drops below altitude 10° 05:25:59 10° 53° (NE) 2,908 7.3 -21.1°
Sets 05:28:54 0° 50° (NE) 3,969 8.0 -20.7°
